Location: Clarion
(42.7316°N, 93.7330°W)
Time: 09:00:48
(UTC+00:00)

Cosmos 1908 Rocket - Pass Details

Date: 22 April 2026
Orbit: 599 x 625 km, 82.5° (Epoch: 16 May)

Event Time Altitude Azimuth Distance (km) Brightness Sun altitude
Exits shadow 02:59:31 24° 190° (S) 1,274 4.9 -19.4°
Maximum altitude 03:02:07 86° 278° (W) 613 3.5 -19.8°
Drops below altitude 10° 03:06:27 10° 7° (N) 1,955 6.5 -20.4°
Sets 03:08:40 0° 8° (N) 2,860 7.4 -20.7°
